Volver al catálogo

AC1-001

ActivoCienciaSSO
NORAD 66744·PAYLOAD·🇬🇧 United Kingdom

Lanzado Nov 28, 2025 desde Vandenberg Space Force Base

Loading…

Próximos Pases (próximas 24 horas)

TLE

ActualizadoSource: Space-Track

Época: Sep 14, 2026, 11:04 UTC

1 66744U 25276CG  26257.46119565  .00001658  00000-0  83241-4 0  9990
2 66744  97.4129 329.0953 0004268  65.7847 294.3833 15.18669353 43959

Sigue AC1-001 en tiempo real con AllMySat

Download on the App Store